Location: Houston
(29.7631°N, 95.3631°W)
Time: 20:55:55
(UTC-05:00)

X-37B - Visible Passes

Search period start: 21 June 2021 00:00
Search period end: 01 July 2021 00:00
Orbit: 386 x 389 km, 45.0° (Epoch: 10 June)

Date Brightness Start Highest point End Pass type
(mag) Time Alt. Az. Time Alt. Az. Time Alt. Az.
21 Jun 4.2 03:50:30 10° N 03:51:08 10° NNE 03:51:47 10° NNE visible
21 Jun 1.3 05:25:09 10° NW 05:28:16 57° NE 05:31:24 10° ESE visible
21 Jun 0.4 21:56:36 10° SW 21:59:46 81° SE 22:01:06 32° ENE visible
22 Jun 2.8 04:27:03 10° NNW 04:29:50 28° NNE 04:32:37 10° E visible
22 Jun 1.3 20:58:36 10° SSW 21:01:29 33° SE 21:04:23 10° ENE visible
22 Jun 3.2 22:35:35 10° W 22:38:09 22° NNW 22:40:44 10° NNE visible
23 Jun 3.8 03:32:12 15° NE 03:32:12 15° NE 03:33:25 10° ENE visible
23 Jun 0.5 05:05:01 10° WNW 05:08:08 57° SW 05:11:14 10° SE visible
23 Jun 1.9 21:36:39 10° WSW 21:39:40 42° NNW 21:42:43 10° NE visible
24 Jun 2.7 05:45:43 10° SW 05:46:06 10° SW 05:46:47 10° SW visible
24 Jun 3.9 22:16:34 10° NW 22:18:15 14° NNW 22:19:57 10° N visible
25 Jun 3.3 21:17:07 10° W 21:19:41 22° NNW 21:22:15 10° NNE visible
27 Jun 3.7 20:58:06 10° NW 20:59:48 13° NNW 21:01:28 10° N visible
